Location: Mountain Grove
(34.0887°N, 86.6172°W)
Time: 15:15:37
(UTC+00:00)

Lacrosse 5 - Pass Details

Date: 14 July 2020
Orbit: 717 x 720 km, 57.0° (Epoch: 09 August)

Event Time Altitude Azimuth Distance (km) Brightness Sun altitude
Exits shadow 06:47:14 15° 310° (NW) 1,881 4.2 -32.8°
Maximum altitude 06:48:26 16° 326° (NNW) 1,820 4.3 -32.7°
Drops below altitude 10° 06:51:32 10° 4° (N) 2,202 5.2 -32.6°
Sets 06:54:50 0° 26° (NNE) 3,124 6.2 -32.4°
